Location: Chiroubles
(46.1812°N, 4.6660°E)
Time: 03:11:01
(UTC+00:00)

Explorer 7 - Pass Details

Date: 27 November 2020
Orbit: 484 x 678 km, 50.3° (Epoch: 25 January)

Event Time Altitude Azimuth Distance (km) Brightness Sun altitude
Exits shadow 04:32:55 44° 26° (NNE) 776 7.6 -24.7°
Drops below altitude 10° 04:36:09 10° 68° (ENE) 1,791 10.3 -24.1°
Sets 04:38:22 0° 74° (ENE) 2,651 11.4 -23.7°
